Погода в Лопче

Россия / Амурская область     55°45′58″N   122°46′37″E
темп.,
°C
ветер,
м/с
пор.,
м/с
влажн.,
%
обл.,
%
осадки,
мм/ч
давл.,
гПа
погр.,
м
19 апреля, пн
пн1900:00−8ссз51476100 0.1 10141301
03:00−8ссз5137688 0.1 10171255
06:00−10ссз5127320 0.0 1020950
09:00−8ссз6126343 0.0 10221570
12:00−6ссз5855100 0.0 10222030
15:00−5сз6959100 0.1 10212230
18:00−5ссз5106347 0.1 10212071
21:00−14сз11925 0.1 10249
20 апреля, вт
вт2000:00−18с11975 0.0 102510
03:00−20ссв11995 0.0 102610
06:00−21ссв11987 0.0 102511
09:00−9вюв127325 0.0 1020254
12:00−4ююв2358100 0.0 1015716
15:00−2ю2562100 0.0 10131101
18:00−1всв11739 0.0 1012197
21:00−8всв119492 0.0 101611
21 апреля, ср
ср2100:00−10св219646 0.0 101713
03:00−10ссв2294100 0.0 101738
06:00−9ссв2393100 0.0 101760
09:00−3св2484100 0.1 1013330
12:000вюв3678100 0.5 1013830
15:00+1юв2270100 0.6 1012850
18:00−1зсз0195100 0.3 1014106
21:00−4ссз1198100 0.4 101718
22 апреля, чт
чт2200:00−4ссз2594100 0.0 1018126
03:00−6с2791100 0.0 1020184
06:00−7с2494100 0.0 102397
09:00−3с386886 0.0 1023639
12:00−1с585111 0.0 10251353
15:00+1с5748100 0.0 10261952
18:00−1с375819 0.0 10291790
21:00−8с22925 0.0 103524
23 апреля, пт
пт2300:00−11с22945 0.0 103837
03:00−13с11965 0.0 104021
06:00−14ссв119431 0.0 104131
09:00−5зюз01705 0.0 1040246
12:00−1юз235416 0.0 10371044
15:00+2зюз35476 0.0 10341575
18:00+1зюз255560 0.0 1033730
21:00−3сз1185100 0.1 103416